Погода в Григоровке

Украина / Днепропетровская область     48°00′55″N   34°45′33″E
темп.,
°C
ветер,
м/с
пор.,
м/с
влажн.,
%
обл.,
%
осадки,
мм/ч
давл.,
гПа
погр.,
м
7 мая, пт
пт700:00+11с479067 0.2 1013372
03:00+9ссз3795100 0.2 1014245
06:00+8ссз35952 0.0 1015135
09:00+13ссз226545 0.0 1016623
12:00+17юз1241100 0.0 10161601
15:00+19ю343889 0.0 10151866
18:00+18ю354546 0.0 10141157
21:00+14юв51152100 0.0 1013218
8 мая, сб
сб800:00+13ю51371100 0.0 1013365
03:00+13ю61370100 0.1 1012488
06:00+13ю71476100 0.0 1010496
09:00+13ю61384100 0.5 1010494
12:00+16зюз6876100 0.1 10101017
15:00+12зсз5990100 3.3 1011538
18:00+11сз71187100 5.6 1013763
21:00+9сз41178100 6.8 1014519
9 мая, вс
вс900:00+7сз71376100 0.0 1016824
03:00+6ссз61381100 0.0 1017846
06:00+5сз613880 0.0 1019694
09:00+9ссз812615 0.0 10201365
12:00+12ссз912414 0.0 10211837
15:00+14ссз91140100 0.0 10222842
18:00+13сз710505 0.1 10232083
21:00+8сз510685 0.1 1026220
10 мая, пн
пн1000:00+6сз48750 0.0 1026134
03:00+5ссз49772 0.0 1027163
06:00+5ссз410770 0.0 1027228
09:00+11с69540 0.0 1026951
12:00+14ссз894072 0.0 10251990
15:00+15ссз91140100 0.0 10232133
18:00+13с71252100 0.0 10221341
21:00+12с91456100 0.0 10201118
11 мая, вт
вт1100:00+11с81567100 0.3 1018698
03:00+11с8157067 0.3 1017633
06:00+10с81582100 0.0 1017464
09:00+13с81577100 0.0 1016646
12:00+16ссв101774100 0.3 10151663
15:00+13всв9116040 0.6 10171351
18:00+11всв10146917 0.1 10181366
21:00+8всв91578100 0.1 10191092